www.pogodaiklimat.ru

Погода и климат >> Архив погоды >> Россия >> Белгородская область >> Валуйки


АРХИВ ПОГОДЫ в Валуйках

Время (UTC), дата Ветер
(напр.,м/с)
 
Видим.   Явления Облачность Т
(С)
Тd
(С)
f
(%)
Тe
(С)
Тes
(С)
Комфортность P
(гПа)
Po
(гПа)
Тmin
(С)
Tmax
(С)
R
(мм)
R24
(мм)
S
(см)
09 11.06 В 3 20 км ясно +30.1 +10.2 29 +30 +45 жарко 1018.4 1005.6
12 11.06 СВ 3 20 км ясно +31.7 +8.4 24 +31 +42 жарко 1017.1 1004.5
15 11.06 СВ 2 20 км ясно +31.0 +9.9 27 +31 +34 жарко 1016.2 1003.6
18 11.06 СВ 2 20 км ясно +25.4 +11.5 42 +27 +27 жарко 1016.5 1003.6 +32.0
21 11.06 СЗ 1 10 км ясно +18.4 +13.4 73 +20 +20 1016.9 1003.6
00 12.06 штиль 0 10 км ясно +15.9 +12.6 81 +16 +16 1016.4 1003.1
03 12.06 штиль 0 20 км ясно +16.6 +13.4 81 +16 +18 1016.6 1003.3 +14.0
06 12.06 СВ 2 20 км ясно +27.9 +11.3 36 +29 +39 жарко 1015.7 1002.9 +14.0
09 12.06 В 3 20 км ясно +32.1 +9.7 25 +31 +46 жарко 1015.5 1002.9
12 12.06 СВ 3 20 км ясно +34.1 +6.2 18 +32 +43 жарко 1014.7 1002.1
15 12.06 СВ 2 20 км 8/0
[Ac trans]
+30.4 +13.6 36 +32 +34 жарко 1013.3 1000.7
18 12.06 СВ 1 20 км 4/0
[Ac trans]
+26.6 +14.0 46 +29 +29 жарко 1013.4 1000.6 +34.3
21 12.06 СВ 2 10 км 3/0
[Ci fib]
+25.4 +15.0 53 +28 +28 жарко 1014.0 1001.1
00 13.06 З 1 10 км ясно +22.5 +14.1 59 +26 +26 жарко 1014.1 1001.1
03 13.06 СВ 1 20 км ясно +23.7 +16.5 64 +27 +29 жарко 1014.4 1001.4 +19.0
06 13.06 СВ 3 20 км ясно +27.5 +15.9 49 +31 +39 душно 1015.7 1002.9 +18.8
09 13.06 СВ 4 20 км 1/0
[Ci fib]
+30.2 +16.1 43 +33 +45 душно 1015.5 1002.9
12 13.06 СВ 5
{10}
20 км 1/1 1000 м
[Cu hum]
+30.0 +15.4 41 +33 +39 душно 1016.1 1003.5
15 13.06 СВ 4
{10}
20 км 1/0
[Ci fib]
+28.7 +15.1 44 +31 +33 жарко 1016.5 1003.8
18 13.06 СВ 2
{10}
20 км 1/0
[Ac trans]
+24.3 +14.2 53 +27 +27 жарко 1019.2 1006.2 +30.6
21 13.06 СВ 4 10 км ясно +21.1 +7.8 42 +22 +22 комфорт 1020.3 1007.2
00 14.06 СВ 4 10 км ясно +17.9 +3.2 37 +18 +18 1022.0 1008.7
03 14.06 В 3 20 км ясно +16.3 +2.7 40 +16 +17 1022.2 1008.8 +15.8
06 14.06 В 3 20 км ясно +20.4 +8.6 47 +22 +30 комфорт 1021.2 1008.0 +15.8
09 14.06 В 2 20 км ясно +25.6 +12.0 43 +27 +45 жарко 1020.7 1004.4
12 14.06 З 2 20 км ясно +27.4 +9.7 33 +28 +41 жарко 1019.7 1006.8
15 14.06 З 2 20 км ясно +28.2 +8.2 28 +28 +31 жарко 1018.1 1005.3
18 14.06 С 2 20 км ясно +21.7 +13.6 60 +24 +24 комфорт 1017.2 1004.1 +28.2
21 14.06 штиль 0 10 км ясно +15.8 +12.2 79 +16 +16 1017.5 1004.2
00 15.06 С 1 10 км ясно +14.3 +12.3 88 +15 +15 1016.9 1003.5
03 15.06 штиль 0 20 км 1/0
[Ci fib]
+14.9 +12.3 84 +15 +16 1016.5 1003.2 +12.7
06 15.06 З 2 20 км ясно +24.2 +15.6 59 +27 +37 жарко 1015.1 1002.2 +12.7
09 15.06 СЗ 2 20 км ясно +30.5 +17.1 45 +34 +52 опасность
солнечного
удара
1013.7 1001.1
12 15.06 З 3 20 км 3/3 1000 м
[Cu hum]
+32.0 +16.1 38 +35 +42 очень
душно
1011.2 998.7
15 15.06 С 7
{17}
20 км 8/3 600 м
[Cb cap Ac trans]
+31.3 +15.9 39 +34 +34 душно 1013.1 1000.5
18 15.06 ЮВ 2
{15}
20 км 8/3 600 м
[Cb cap Ac trans Ci fib]
+20.0 +16.4 80 +23 +23 комфорт 1012.3 999.3 +32.3
21 15.06 штиль 0 10 км 3/0
[Ci fib]
+18.4 +16.5 89 +19 +19 1011.9 988.8
00 16.06 штиль 0 10 км 3/0
[Ci fib]
+17.0 +16.0 94 +17 +17 1012.3 999.1
03 16.06 штиль 0 20 км гроза без осадков 8/3 600 м
[Cb cap Ac trans Ci fib]
+17.2 +16.0 93 +17 +18 1011.6 998.4 +15.8 0.0
06 16.06 штиль 0 20 км {гроза, ливн. осадки} 3/0
[Ac trans]
+23.5 +17.0 67 +27 +38 душно 1010.8 997.9 +15.8 0.0
09 16.06 С 2 20 км 8/3 600 м
[Cb cap Ac trans]
+25.7 +18.5 64 +30 +37 душно 1011.0 998.3
12 16.06 С 3 20 км 8/3 600 м
[Cb cap Ac trans]
+25.6 +17.3 60 +30 +34 душно 1011.2 998.4
15 16.06 СВ 3 20 км 8/3 600 м
[Cb cap Ac trans]
+23.2 +16.4 66 +28 +29 душно 1012.0 999.1
18 16.06 С 1 20 км ясно +20.7 +15.3 71 +25 +25 комфорт 1012.2 999.2 +26.0
21 16.06 СЗ 1 10 км ясно +15.8 +14.0 89 +16 +16 1013.6 1000.3
00 17.06 СЗ 1 10 км ясно +13.1 +11.8 92 +13 +13 1015.2 1001.8
03 17.06 штиль 0 20 км ясно +14.4 +12.7 90 +14 +16 1014.7 1001.3 +12.7
06 17.06 СЗ 1 20 км ясно +22.0 +16.4 71 +26 +38 душно 1015.4 1002.4 +12.7
09 17.06 С 2 20 км 8/3 600 м
[Cb cap Ac trans]
+26.2 +15.0 50 +29 +36 жарко 1015.2 1002.4
12 17.06 З 1 20 км 8/3 600 м
[Cb cap Ac trans]
+26.8 +14.1 46 +29 +35 жарко 1014.3 1001.5
15 17.06 С 3 20 км 6/3 600 м
[Cb cap Ac trans]
+27.4 +13.1 41 +29 +30 жарко 1013.5 1000.7
18 17.06 С 1 20 км 3/0
[Ac trans]
+23.2 +15.0 60 +27 +27 душно 1015.3 1002.3 +28.2
21 17.06 С 1 10 км ясно +17.3 +13.4 78 +18 +18 1016.1 1002.8
00 18.06 штиль 0 10 км ясно +14.7 +13.0 90 +14 +14 1016.4 1003.1
03 18.06 штиль 0 20 км ясно +15.3 +12.7 84 +15 +17 1016.5 1003.2 +13.2
06 18.06 Ю 1 20 км 3/0
[Ci fib]
+24.2 +17.1 65 +28 +39 душно 1014.8 1001.9 +13.2

 

Местоположение метеостанции Валуйки (Белгородская область, Россия): широта 50.22 долгота 38.10 высота над уровнем моря 112 м.

В архиве по умолчанию представлена погода в Валуйках за последнюю неделю. Архивные данные за месяц целиком и за предыдущие месяцы, начиная с января 2011 года, Вы можете получить, выбрав интересующий диапазон дат из раскрывающегося списка и нажав кнопку "Ввод!".


*Определитесь, кто Вы:
робот инопланетянин человек

Внимание! Время в таблицах - всемирное. Для получения местного времени необходимо прибавить поправку, которая равна 3 ч.

Смотрите также архив погоды в соседних городах и на ближайших метеорологических станциях:

Погода в Новопскове (Луганская область, Украина) (25 км)
Погода в Троицком (Луганская область, Украина) (35 км)
Погода в Великом Бурлуке (Харьковская область, Украина) (54 км)
Погода в Новом Осколе (Белгородская область, Россия) (61 км)
Погода в Купянске (Харьковская область, Украина) (72 км)
Погода в Сватово (Луганская область, Украина) (89 км)
Погода в Белгороде (Белгородская область, Россия) (117 км)
Погода в Богородицком (Белгородская область, Россия) (118 км)
Погода в Старом Осколе (Белгородская область, Россия) (121 км)
Погода в Изюме (Харьковская область, Украина) (129 км)

Пояснения к столбцам:

Ветер - указаны скорость ветра в м/с - средняя за 10 мин, порывы в срок и между сроками (в фигурных скобках) и направление, откуда дует ветер: С - северный, СВ - северо-восточный, В - восточный, ЮВ - юго-восточный, Ю - южный, ЮЗ - юго-западный, З - западный, СЗ - северо-западный.
Видимость - горизонтальная дальность видимости в метрах или километрах. При видимости от 1 до 10 км при отсутствии осадков обычно наблюдается дымка, при ухудшении видимости до 1 км и менее - туман. В сухую погоду видимость может ухудшаться дымом, пылью или мглою.
Явления - указаны атмосферные явления, наблюдавшиеся в срок или в последний час перед сроком; фигурными скобками обозначены явления, наблюдавшиеся между сроками (за 1-3 часа до срока); квадратными скобками обозначены град или гололедные отложения с указанием их диаметра в мм.
Облачность - указаны через наклонную черту общая и нижняя облачность в баллах и высота нижней границы облаков в метрах; квадратными скобками обозначены формы облаков: Ci - перистые, Cs - перисто-слоистые, Cc - перисто-кучевые, Ac - высококучевые, As - высокослоистые, Sc - слоисто-кучевые, Ns - слоисто-дождевые, Cu - кучевые, Cb - кучево-дождевые. Подробнее классификацию облаков см. в Атласе облаков (PDF).
T - Температура воздуха - температура, измеренная на высоте 2 м над землей.
Td - Температура точки росы - температура, при понижении до которой содержащийся в воздухе водяной пар достигнет насыщения.
f - Относительная влажность воздуха - влажноcть воздуха, измеренная на высоте 2 м над землей.
Te - Эффективная температура - температура, которую ощущает одетый по сезону человек в тени. Характеристика душности погоды. При расчете учитывается влияние влажности воздуха и скорости ветра на теплоощущения человека.
Tes - Эффективная температура на солнце - температура, которую ощущает человек, с поправкой на солнечный нагрев. Характеристика знойности погоды. Зависит от высоты солнца над горизонтом, облачности и скорости ветра. Ночью, в пасмурную погоду, а также при ветре 12 м/с и более поправка равна нулю.
P - Атмосферное давление - приведенное к уровню моря атмосферное давление.
Po - Атмосферное давление - измеренное на уровне метеостанции атмосферное давление.
Tmin - Минимальная температура - минимум температуры воздуха на высоте 2 м над землей.
Tmax - Максимальная температура - максимум температуры воздуха на высоте 2 м над землей.
R - Количество осадков - Количество выпавших осадков за период времени, мм. При наведении курсора мыши на число - период времени, за который выпало указанное количество осадков.
R24 - Количество осадков - Количество выпавших осадков за 24 часа, мм.
S - Снежный покров - Высота снежного покрова, см. При наведении курсора мыши на число - состояние снежного покрова и степень покрытия местности в баллах.